Satellite: IDEFIX/ARIANE 
Catalog number: 27422
Epoch time:      103015.54848725
Element set:     209 
Inclination:       98.6999 deg
RA of node:        94.8997 deg
Eccentricity:    0.0011819
Arg of perigee:   247.1933 deg
Mean anomaly:     112.8000 deg
Mean motion:   14.27949600 rev/day
Decay rate:    3.1500E-006 rev/day^2
Epoch rev:            3660
Checksum:              323

Satellite: NOAA 17
Catalog number: 27453
Epoch time:      103015.96235930
Element set:     269 
Inclination:       98.7619 deg
RA of node:        87.3407 deg
Eccentricity:    0.0012693
Arg of perigee:    94.0359 deg
Mean anomaly:     266.2270 deg
Mean motion:   14.23271305 rev/day
Decay rate:    3.2099E-006 rev/day^2
Epoch rev:            2918
Checksum:              322

Satellite: HOT BIRD 6
Catalog number: 27499
Epoch time:      103013.80550721
Element set:     66 
Inclination:        0.0928 deg
RA of node:        32.8693 deg
Eccentricity:    0.0008090
Arg of perigee:   290.3889 deg
Mean anomaly:      92.5421 deg
Mean motion:    1.00271722 rev/day
Decay rate:    1.0600E-006 rev/day^2
Epoch rev:             147
Checksum:              269

Satellite: RUBIN 2
Catalog number: 27605
Epoch time:      103015.86829372
Element set:     30 
Inclination:       64.5528 deg
RA of node:       299.5709 deg
Eccentricity:    0.0030818
Arg of perigee:   125.2649 deg
Mean anomaly:     235.1337 deg
Mean motion:   14.71375357 rev/day
Decay rate:    1.0349E-005 rev/day^2
Epoch rev:             385
Checksum:              312


Read previous mail | Read next mail


 10.06.2026 22:50:44lGo back Go up